Wind_Speed
104 113 113 106 98 92 82 74 66 62 65 59 58 61 57 60 57 59 53 58 54 52 49 46 47 43 39 37 37 34 33 32 37 37 37 34 33 32 31 31 30 30 29 30
105 111 109 106 102 98 90 82 74 71 72 66 66 67 67 56 53 53 56 59 55 52 49 47 48 43 40 39 40 37 34 32 33 36 37 36 36 34 33 32 30 28 28 28
100 105 109 107 100 98 91 86 80 79 83 72 64 56 55 49 52 54 57 56 56 53 50 49 48 44 42 40 38 34 33 31 28 30 33 36 35 33 32 32 30 28 26 27
96 101 108 108 104 100 95 90 86 86 89 74 61 53 46 49 49 50 53 54 56 55 51 50 48 44 43 42 38 37 34 32 28 26 27 30 30 28 28 29 28 28 26 25
98 101 104 111 112 108 102 96 93 93 96 74 55 47 51 52 45 46 50 55 56 54 50 48 45 44 43 43 40 39 37 34 31 28 27 26 25 25 25 25 25 25 24 23
96 98 103 114 116 113 108 109 107 103 96 71 57 55 57 48 45 46 48 53 57 55 51 49 46 44 44 44 42 41 39 37 33 31 28 26 25 21 20 20 20 22 22 21
97 97 106 113 115 113 109 111 104 101 86 76 65 62 62 53 49 47 49 51 53 52 49 50 47 45 45 43 44 44 42 39 35 31 28 26 22 20 20 20 21 20 21 22
99 99 104 110 114 116 117 112 105 98 88 80 74 69 60 56 52 47 45 44 50 54 47 51 49 45 43 43 44 46 44 42 38 34 30 30 27 25 24 25 25 24 24 21
102 105 106 109 115 119 119 112 107 98 92 86 84 70 68 63 55 49 47 50 31 41 50 50 49 47 45 45 46 45 44 43 40 35 33 33 31 27 25 25 27 26 25 25
95 97 98 106 111 118 118 114 109 103 96 92 87 82 75 68 62 56 52 53 58 66 56 50 48 48 47 47 46 44 44 42 40 36 36 35 29 27 29 31 31 28 28 29
90 97 102 103 109 114 113 110 107 105 100 95 93 89 82 72 67 62 56 55 55 57 51 49 48 48 45 45 43 42 42 41 40 39 36 34 31 31 31 31 32 28 28 29
84 90 102 104 106 109 111 113 114 108 103 98 96 93 87 78 72 67 61 53 52 52 48 51 47 45 46 45 45 43 41 40 42 42 39 39 37 32 34 33 31 29 30 30
77 82 96 103 103 105 109 114 115 111 107 102 100 96 93 85 76 71 65 57 52 51 50 46 38 39 40 40 38 39 39 40 41 44 44 45 42 38 38 34 29 30 33 37
71 78 89 99 99 102 107 114 116 113 108 106 102 100 98 92 80 75 68 62 56 50 46 52 49 46 41 40 34 35 37 46 42 41 40 40 41 41 40 42 38 39 40 39
69 74 80 91 99 101 105 111 114 112 109 108 106 103 101 97 86 78 73 68 61 54 46 55 55 41 37 27 31 33 34 40 44 45 44 42 44 42 37 41 42 44 40 40
61 68 77 83 94 100 103 109 110 114 111 110 109 106 103 100 93 83 79 74 67 59 57 56 54 46 32 21 45 46 46 39 46 44 43 39 37 34 32 39 35 35 35 35
53 60 70 79 88 98 101 105 110 113 114 112 112 110 106 104 98 89 83 79 73 65 56 59 55 49 54 57 36 39 51 54 48 43 49 50 43 42 39 35 32 34 39 27
48 54 64 75 83 92 102 106 107 113 116 114 114 113 109 107 103 95 89 84 79 71 64 59 63 58 55 52 53 47 54 51 53 52 43 40 36 43 48 37 41 46 42 33
51 56 62 71 79 85 97 105 107 111 115 115 113 115 114 111 107 100 92 88 84 79 73 67 68 67 64 64 66 61 46 55 48 56 48 38 31 31 31 47 49 46 43 40
52 55 61 68 74 80 90 99 105 108 114 117 116 116 118 116 110 106 99 93 90 86 82 76 74 66 75 72 76 72 61 52 55 42 45 42 44 48 46 51 51 50 46 47
52 58 63 68 73 77 83 93 105 108 112 117 118 118 118 119 114 109 105 99 95 93 89 84 78 79 78 77 73 66 70 68 63 53 51 50 53 59 65 67 63 59 60 57
52 58 63 70 75 80 86 93 102 111 110 113 118 120 120 120 118 114 111 107 101 99 95 90 86 81 82 79 76 71 72 70 65 60 61 63 62 72 74 71 66 65 66 63
53 54 61 63 72 82 89 95 102 107 111 113 117 122 121 121 122 121 117 113 107 102 100 97 93 89 85 85 82 76 78 76 74 75 71 71 77 77 82 79 74 71 70 64
52 60 62 65 66 72 82 87 96 105 107 110 114 120 123 125 124 123 120 118 115 110 106 102 99 96 92 88 85 84 84 81 84 85 88 83 83 86 86 82 76 73 75 78
52 56 64 69 70 71 76 79 85 92 99 104 110 114 118 124 125 124 123 121 118 115 112 108 105 102 99 97 94 90 89 91 89 88 90 91 88 86 85 84 82 78 76 72
49 55 60 64 67 70 75 75 75 75 78 87 103 111 115 120 126 126 125 122 121 119 118 115 112 109 105 103 100 98 95 93 92 95 92 96 95 88 88 85 81 80 79 73
47 51 57 61 63 66 69 75 80 82 81 81 88 102 111 115 121 127 129 127 124 124 122 120 118 116 113 109 107 104 102 101 98 96 96 99 102 98 94 92 91 91 89 87
Wind_Direction
213 213 213 212 213 215 214 215 216 218 223 214 216 219 213 223 224 228 227 230 226 226 226 227 230 232 234 231 237 248 258 260 256 252 256 261 268 276 285 294 302 308 315 322
213 214 212 213 212 214 212 213 210 218 224 214 214 216 224 227 231 231 225 226 224 225 227 226 231 233 236 235 240 247 253 259 262 261 262 264 269 277 285 292 299 305 312 319
213 213 209 212 214 214 216 212 211 215 225 218 218 221 225 225 224 227 226 224 224 224 226 225 228 232 234 236 239 244 249 255 262 268 270 271 274 279 283 289 294 297 305 313
213 211 208 207 209 214 213 215 214 214 223 220 213 215 222 225 222 226 228 223 222 223 225 227 226 230 233 235 238 241 245 248 255 263 271 275 277 280 284 286 287 290 298 306
211 208 205 205 207 207 210 213 213 216 224 222 205 205 218 223 224 225 225 221 217 220 223 226 227 230 232 235 237 241 244 245 249 259 266 270 272 272 277 284 290 295 298 304
210 208 205 205 208 209 208 210 212 215 219 218 210 205 220 218 225 222 220 219 217 219 221 223 226 230 230 234 237 240 243 244 249 255 261 268 272 270 272 277 288 291 294 299
210 207 207 205 205 207 210 213 213 217 217 218 214 209 219 218 222 223 221 218 217 219 223 224 223 226 228 230 235 239 242 244 246 249 255 264 258 259 268 283 296 300 295 293
208 208 207 205 204 208 210 210 214 214 214 216 218 214 211 218 222 222 223 224 217 216 222 224 223 224 228 228 231 235 239 241 244 245 250 251 253 262 275 282 288 287 284 279
208 207 206 205 204 208 208 208 211 213 213 215 219 215 214 215 217 217 210 222 225 226 224 222 224 225 223 224 231 234 237 241 244 246 251 249 253 264 274 285 296 281 282 271
210 210 209 207 206 209 209 209 209 209 210 211 216 218 215 214 215 217 215 214 203 214 230 225 224 227 228 226 227 232 236 240 242 243 249 251 252 263 276 281 288 284 285 283
210 206 208 208 207 209 207 208 210 210 209 210 214 216 217 211 215 215 218 218 220 227 225 223 221 225 229 233 233 235 236 239 237 238 245 249 257 265 272 276 283 281 285 279
212 206 208 207 208 208 207 207 207 207 209 209 213 217 219 213 212 215 216 220 223 223 220 222 223 228 230 234 236 235 237 237 234 236 243 248 257 263 269 273 274 272 279 281
211 207 208 208 208 207 206 207 207 206 206 208 212 216 220 217 210 214 216 218 220 222 219 216 216 229 233 239 236 243 243 244 239 239 245 251 256 258 265 265 267 272 276 279
212 208 208 208 207 207 205 207 207 206 205 207 210 213 219 220 211 212 215 218 218 221 216 215 215 226 231 239 238 237 244 243 254 254 251 248 251 261 264 263 265 274 278 278
211 209 208 208 207 206 206 207 208 205 205 206 209 213 218 222 215 212 214 217 216 215 213 206 213 227 231 242 256 253 255 256 254 257 255 253 250 254 262 270 273 275 276 274
213 210 206 205 208 206 206 207 207 206 205 206 209 212 216 221 220 212 214 216 216 211 214 210 215 217 171 222 260 258 266 252 250 257 256 252 254 259 265 273 266 267 275 276
209 208 207 205 207 206 206 206 206 207 206 206 208 211 215 219 221 216 214 216 217 214 214 210 208 194 184 186 224 234 252 249 246 248 240 251 256 263 255 257 257 269 275 285
201 204 204 205 206 206 206 208 206 207 207 206 207 212 214 218 221 219 215 216 217 216 210 210 203 195 187 195 199 217 237 241 244 244 241 245 250 252 252 251 254 269 268 273
199 200 201 204 206 205 206 207 208 208 208 206 208 210 214 217 220 221 217 217 217 217 214 207 201 201 204 205 208 204 203 231 233 232 231 234 246 238 251 248 252 261 268 268
197 199 200 203 205 206 208 208 209 209 209 207 208 210 214 217 218 221 219 217 218 218 218 213 210 210 205 204 207 211 213 219 218 216 216 219 235 243 248 249 252 261 263 264
201 201 201 202 203 205 207 210 211 211 209 210 208 211 213 217 218 220 220 218 218 220 219 218 213 215 210 209 212 216 218 218 218 224 228 225 229 236 240 244 251 260 264 262
210 208 208 205 206 205 207 210 212 212 211 211 210 210 214 216 218 219 222 220 218 220 221 221 218 215 218 217 217 218 222 220 216 220 215 220 219 231 234 239 245 256 258 257
220 219 216 217 211 209 211 211 214 212 212 211 212 211 212 217 218 219 221 223 221 221 222 223 223 221 219 219 220 219 222 222 218 219 218 221 227 229 233 238 246 252 252 252
211 218 222 221 221 219 220 218 219 219 214 214 214 215 212 215 219 220 220 224 224 222 223 223 224 225 224 223 222 223 223 225 223 225 229 230 234 236 241 244 247 249 249 252
216 216 218 222 224 225 224 224 225 225 221 217 218 218 216 215 219 222 222 223 226 226 225 224 225 226 226 225 225 224 225 227 228 228 230 235 237 240 242 246 249 247 247 250
217 219 222 223 223 223 226 228 230 229 226 222 221 220 219 218 217 222 225 224 225 228 228 227 227 228 228 229 229 228 227 228 229 230 233 234 237 240 243 244 247 244 245 249
225 223 223 225 226 226 223 222 224 226 224 219 217 221 222 222 220 220 222 226 226 226 229 231 230 229 230 230 231 231 232 231 231 231 232 234 235 238 241 243 245 247 249 253
Height
10697 10709 10727 10753 10776 10793 10816 10833 10846 10854 10853 10869 10877 10884 10889 10899 10909 10918 10928 10932 10940 10947 10953 10962 10968 10974 10980 10986 10991 10995 10997 10999 11001 11002 11003 11006 11007 11008 11008 11007 11006 11003 11000 10997
10676 10694 10727 10746 10762 10777 10796 10815 10830 10837 10838 10851 10860 10870 10878 10896 10904 10912 10916 10922 10932 10940 10946 10955 10961 10968 10974 10979 10984 10988 10991 10994 10996 10999 11000 11002 11003 11004 11005 11004 11003 11001 10999 10995
10661 10680 10708 10733 10758 10771 10789 10802 10817 10820 10812 10832 10850 10873 10882 10890 10895 10900 10906 10914 10924 10930 10937 10946 10954 10960 10967 10972 10977 10981 10985 10988 10992 10994 10996 10997 10999 11000 11001 11000 10999 10998 10996 10993
10640 10662 10689 10721 10735 10757 10775 10789 10800 10802 10794 10818 10846 10859 10872 10876 10886 10892 10897 10906 10915 10923 10931 10939 10947 10953 10960 10965 10970 10974 10978 10982 10986 10989 10991 10992 10994 10995 10995 10994 10994 10994 10992 10990
10618 10646 10672 10690 10707 10728 10748 10772 10782 10782 10772 10806 10840 10855 10859 10865 10877 10884 10892 10898 10906 10913 10923 10932 10940 10945 10952 10956 10962 10967 10971 10976 10981 10984 10986 10987 10988 10989 10989 10990 10990 10990 10988 10987
10608 10631 10654 10660 10683 10708 10726 10731 10742 10753 10768 10809 10831 10843 10849 10864 10869 10875 10881 10887 10896 10904 10913 10922 10930 10937 10944 10949 10954 10960 10965 10970 10975 10978 10981 10983 10984 10984 10985 10985 10985 10985 10984 10983
10591 10611 10623 10648 10674 10696 10716 10718 10742 10751 10782 10800 10820 10834 10843 10854 10859 10865 10871 10880 10890 10898 10906 10912 10919 10929 10936 10943 10947 10953 10958 10962 10967 10972 10974 10977 10979 10980 10982 10982 10982 10981 10980 10978
10575 10593 10610 10632 10657 10671 10683 10709 10730 10750 10776 10793 10804 10815 10838 10844 10849 10858 10864 10871 10880 10889 10895 10902 10910 10920 10930 10935 10940 10944 10949 10954 10959 10964 10968 10971 10973 10975 10977 10978 10978 10976 10975 10973
10552 10568 10588 10614 10633 10649 10669 10698 10716 10742 10763 10779 10786 10811 10822 10830 10842 10850 10860 10865 10873 10879 10887 10894 10903 10911 10918 10925 10932 10937 10942 10947 10952 10957 10961 10964 10967 10971 10973 10973 10973 10971 10970 10968
10548 10573 10594 10606 10626 10633 10660 10684 10704 10723 10744 10761 10778 10790 10804 10818 10832 10841 10851 10859 10868 10876 10878 10887 10895 10903 10910 10916 10922 10929 10936 10941 10946 10951 10954 10958 10962 10965 10967 10967 10967 10965 10965 10964
10530 10555 10570 10591 10605 10620 10651 10677 10696 10710 10729 10748 10760 10772 10788 10806 10819 10831 10841 10849 10859 10864 10871 10878 10886 10894 10903 10911 10917 10922 10929 10934 10939 10944 10948 10952 10955 10958 10959 10960 10960 10960 10960 10960
10515 10543 10554 10572 10591 10612 10636 10654 10670 10692 10715 10734 10747 10760 10773 10791 10806 10817 10829 10839 10847 10853 10862 10871 10880 10887 10895 10903 10911 10917 10922 10927 10932 10937 10940 10945 10946 10950 10951 10952 10953 10954 10955 10954
10506 10528 10541 10559 10580 10599 10619 10636 10655 10678 10696 10718 10733 10748 10757 10774 10792 10804 10817 10829 10838 10845 10854 10864 10871 10878 10886 10896 10905 10911 10917 10921 10925 10929 10933 10937 10939 10942 10944 10945 10947 10948 10949 10947
10498 10513 10525 10544 10567 10585 10602 10618 10638 10662 10685 10702 10718 10730 10741 10756 10780 10793 10805 10816 10827 10836 10843 10852 10860 10870 10881 10890 10898 10905 10911 10914 10918 10920 10924 10928 10931 10935 10937 10937 10940 10940 10940 10939
10486 10500 10519 10535 10552 10570 10590 10605 10626 10652 10671 10688 10703 10715 10728 10740 10765 10783 10793 10803 10815 10827 10836 10845 10854 10867 10878 10889 10896 10899 10901 10910 10913 10916 10914 10918 10921 10922 10927 10930 10933 10931 10931 10929
10478 10491 10505 10524 10539 10558 10572 10591 10618 10634 10653 10671 10687 10702 10714 10726 10746 10768 10779 10790 10802 10815 10825 10837 10847 10859 10863 10878 10884 10896 10900 10908 10909 10909 10911 10908 10911 10914 10919 10921 10922 10923 10923 10922
10468 10482 10498 10514 10525 10545 10563 10580 10596 10618 10636 10653 10671 10685 10699 10711 10728 10751 10766 10778 10790 10804 10814 10825 10835 10850 10853 10862 10873 10882 10890 10892 10895 10898 10900 10899 10902 10904 10909 10908 10912 10917 10917 10917
10462 10474 10488 10502 10515 10531 10548 10563 10582 10599 10617 10637 10654 10670 10686 10695 10708 10730 10750 10763 10776 10790 10803 10811 10821 10831 10837 10844 10855 10864 10872 10878 10881 10883 10885 10888 10890 10890 10896 10898 10904 10907 10907 10908
10455 10466 10478 10491 10504 10521 10535 10552 10565 10583 10603 10621 10640 10654 10665 10678 10692 10712 10732 10748 10760 10774 10785 10797 10806 10812 10819 10829 10836 10847 10853 10864 10864 10869 10874 10878 10882 10883 10884 10888 10893 10896 10895 10897
10451 10461 10472 10484 10498 10513 10525 10541 10556 10569 10586 10602 10621 10636 10647 10659 10676 10691 10711 10728 10743 10755 10766 10779 10790 10796 10805 10809 10816 10826 10834 10840 10846 10851 10855 10863 10871 10873 10876 10878 10880 10881 10882 10885
10449 10455 10464 10476 10488 10501 10514 10523 10536 10552 10566 10583 10605 10616 10632 10642 10658 10673 10690 10707 10723 10733 10746 10759 10772 10780 10790 10797 10803 10810 10817 10826 10833 10837 10841 10846 10853 10858 10857 10859 10864 10867 10868 10871
10444 10449 10457 10467 10476 10486 10495 10503 10516 10527 10551 10570 10585 10599 10613 10627 10641 10654 10666 10685 10702 10712 10726 10739 10752 10763 10771 10780 10790 10796 10802 10808 10815 10821 10824 10827 10831 10832 10839 10844 10849 10852 10855 10858
10441 10445 10452 10459 10469 10474 10481 10489 10496 10514 10530 10546 10562 10576 10597 10607 10618 10632 10647 10661 10680 10694 10706 10718 10729 10742 10754 10764 10772 10780 10786 10794 10799 10804 10807 10809 10811 10816 10820 10825 10831 10835 10839 10843
10430 10437 10444 10450 10458 10467 10474 10482 10490 10498 10516 10532 10547 10558 10577 10586 10596 10611 10628 10639 10654 10671 10684 10697 10709 10720 10733 10744 10753 10761 10767 10774 10784 10787 10791 10794 10798 10800 10805 10811 10816 10819 10823 10827
10420 10426 10431 10438 10445 10452 10460 10470 10479 10488 10503 10518 10532 10544 10561 10575 10584 10593 10606 10622 10633 10649 10663 10675 10687 10697 10708 10718 10728 10739 10747 10754 10762 10767 10772 10778 10782 10787 10791 10795 10800 10803 10807 10810
10407 10411 10417 10423 10429 10438 10444 10453 10460 10469 10483 10501 10514 10522 10537 10552 10566 10575 10584 10600 10614 10624 10635 10650 10663 10673 10685 10694 10705 10715 10725 10730 10739 10746 10752 10757 10762 10767 10771 10776 10780 10785 10790 10793
10395 10399 10403 10408 10414 10420 10426 10434 10441 10448 10457 10468 10482 10496 10515 10528 10540 10555 10563 10572 10587 10599 10609 10621 10635 10648 10658 10670 10680 10690 10699 10706 10715 10724 10731 10735 10742 10746 10751 10756 10761 10766 10770 10775